Starlink 11444

operational
NORAD ID: 62409 Int'l Des: 2024-249 Owner: SPXS Country: US Constellation: starlink
LEOCIRCULAR

Starlink 11444について

説明を読み込み中...

リアルタイム位置

3D地球を読み込み中...

次回通過

高度履歴

Altitude vs Time

uPlot chart will show altitude changes over time

軌道要素

1 62409U 24249A 25303.83073573 .00351036 00000-0 26221-2 0 9994
2 62409 42.9982 230.7213 0000992 230.3641 129.7139 15.70867985 49050
Epoch: Oct 30, 2025 • Age: 22 hours

現在のステータス

高度 357.4 km
速度 7.70 km/s
衛星直下点 39.92°N, 35.33°E
打ち上げ日 Dec 23, 2024
運用期間 0.8 years
タイプ internet

技術仕様

分類 Payload
質量 960.00 kg
乾燥質量 910.00 kg
総質量 960.00 kg
長さ 0.30 m
直径 4.10 m
スパン 29.00 m
形状 Box + pan
製造者 SPXS
バスタイプ Starlink V2MD
フェーズステータス In Orbit
所有者/国 SPXS/US

大規模コンステレーション

Loading constellations...